Lapse_Rate
6.7 6.8 6.7 6.8 6.9 7.0 7.2 7.2 7.1 7.4 7.4 7.3 7.4 7.4 7.4 7.3 7.1 6.9 6.8 6.7 6.6 6.6 6.4 6.6 6.7 6.8 7.0 7.1 7.2 7.2 7.5 7.7 7.8 7.7 7.8 7.9 8.1 8.2 8.3 8.3 8.1 8.0 7.8 7.8 7.7 7.7 7.6
6.4 6.5 6.5 6.7 6.7 6.8 6.8 6.9 6.8 7.2 7.0 7.1 7.3 7.2 7.1 7.0 6.9 6.8 6.7 6.4 6.5 6.4 6.6 6.5 6.7 6.8 6.9 7.1 7.4 7.4 7.7 7.7 7.8 7.9 8.0 8.3 8.2 7.9 8.1 8.1 8.1 7.9 7.7 7.7 7.6 7.6 7.6
6.4 6.3 6.4 6.6 6.8 6.7 6.6 6.5 6.5 6.6 6.7 6.9 6.8 6.7 6.7 6.8 6.7 6.5 6.3 6.4 6.3 6.4 6.3 6.6 7.0 7.2 7.3 7.6 7.5 7.6 7.6 7.5 7.7 7.9 8.0 8.3 8.3 8.3 8.1 8.0 8.0 7.8 7.9 7.9 7.9 7.8 7.6
6.2 6.2 6.4 6.3 6.3 6.4 6.5 6.3 6.3 6.4 6.4 6.4 6.4 6.5 6.6 6.6 6.5 6.3 6.4 6.3 6.3 6.3 6.5 6.9 7.2 7.4 7.6 7.4 7.4 7.6 7.9 7.9 7.9 8.0 8.1 8.2 8.1 8.0 8.0 8.0 7.9 7.8 7.8 7.9 7.8 7.9 7.6
6.0 6.2 6.4 6.3 6.3 6.2 6.2 6.2 6.2 6.1 6.1 6.2 6.2 6.4 6.6 6.5 6.4 6.5 6.5 6.6 6.5 6.7 6.9 7.3 7.5 7.6 7.7 7.9 7.9 8.0 8.1 8.0 8.0 8.1 8.1 7.9 7.9 7.8 7.8 7.9 7.7 7.8 7.6 7.6 7.5 7.4 7.4
6.0 6.1 6.1 6.1 6.2 6.1 6.0 5.9 5.9 6.0 6.0 6.1 6.2 6.3 6.4 6.5 6.6 6.7 6.7 6.7 6.8 7.1 7.4 7.6 7.5 7.7 7.7 7.8 7.9 8.1 8.1 8.1 7.9 7.8 7.7 7.7 7.7 7.8 7.6 7.7 7.6 7.4 7.2 7.2 7.2 7.2 7.2
5.8 6.1 5.9 6.0 6.0 5.9 5.9 5.8 5.8 5.9 6.0 6.1 6.2 6.3 6.4 6.5 6.7 6.8 6.7 6.8 7.1 7.1 7.3 7.4 7.4 7.4 7.6 7.8 7.8 8.0 8.1 7.9 7.8 7.8 7.6 7.6 7.5 7.6 7.4 7.4 7.2 7.1 7.0 7.0 7.0 7.0 7.2
5.7 5.8 5.8 5.8 5.8 5.8 5.7 5.7 5.8 5.9 6.0 6.1 6.2 6.3 6.4 6.5 6.6 6.7 6.8 7.0 7.0 7.2 7.3 7.4 7.5 7.7 7.7 7.7 7.8 8.0 8.0 7.9 7.7 7.6 7.6 7.5 7.3 7.2 7.3 7.3 7.1 7.1 7.0 6.9 7.0 6.8 7.1
5.9 5.9 5.8 5.7 5.6 5.7 5.7 5.8 5.8 5.8 5.9 6.0 6.1 6.3 6.5 6.7 6.8 6.9 6.9 6.9 7.2 7.4 7.4 7.2 7.3 7.5 7.4 7.4 7.6 7.8 7.7 7.7 7.6 7.5 7.5 7.3 7.0 7.0 7.1 7.1 7.1 6.9 6.8 6.7 6.6 6.9 6.8
5.8 6.0 5.7 5.7 5.5 5.7 5.7 5.8 5.8 5.8 5.9 6.0 6.2 6.3 6.5 6.6 6.6 6.7 6.9 7.1 7.3 7.4 7.4 7.1 7.2 7.1 7.1 7.2 7.3 7.2 7.4 7.4 7.3 7.3 7.1 7.0 6.9 6.8 6.9 7.0 7.0 6.9 6.6 6.6 6.7 6.7 7.0
6.1 5.9 5.8 5.8 5.7 5.7 5.8 5.9 5.9 5.9 5.9 6.0 6.2 6.2 6.3 6.4 6.5 6.9 7.0 7.2 7.4 7.5 5.6 6.8 6.8 6.7 6.9 7.3 7.1 7.2 7.2 7.2 7.3 7.2 7.1 6.9 6.8 6.8 6.8 6.6 6.8 6.8 6.9 7.0 7.0 7.1 6.9
6.3 6.1 6.0 5.9 5.8 5.8 5.9 5.9 6.0 6.0 6.1 6.1 6.2 6.2 6.3 6.5 6.7 6.9 6.9 7.0 7.2 7.3 6.6 6.6 6.7 6.8 6.8 7.0 7.0 6.8 7.2 7.2 7.1 7.1 7.0 6.9 6.7 6.6 6.5 6.5 6.4 6.6 7.0 7.0 6.9 7.1 6.5
6.4 6.3 6.1 6.0 5.8 5.8 6.0 6.1 6.0 6.1 6.2 6.3 6.3 6.4 6.4 6.6 6.7 6.7 6.8 6.9 7.0 7.0 6.7 6.7 6.8 6.8 6.9 6.9 7.0 7.0 7.2 7.4 7.1 7.0 7.0 6.6 6.5 6.5 6.4 6.4 6.2 6.6 7.0 6.9 5.8 5.2 5.1
6.5 6.5 6.3 6.0 5.9 5.9 6.0 6.2 6.2 6.1 6.3 6.4 6.4 6.5 6.5 6.7 6.7 6.7 6.7 6.7 7.0 6.7 6.8 6.8 6.9 7.0 7.1 7.0 6.9 6.9 6.9 6.9 6.8 6.9 6.8 6.6 6.5 6.3 6.3 6.3 6.3 6.4 6.7 6.1 5.3 3.9 5.0
6.6 6.6 6.3 6.2 6.1 6.0 5.9 6.1 6.2 6.3 6.3 6.4 6.5 6.6 6.7 6.8 6.8 6.7 6.6 6.8 6.8 6.9 6.9 7.0 6.9 7.1 7.1 7.1 7.1 7.0 6.8 6.7 6.6 6.7 6.8 6.6 6.6 6.5 6.6 6.4 6.4 6.3 6.2 6.1 6.1 5.8 5.0
6.5 6.6 6.4 6.3 6.2 6.0 5.9 6.0 6.2 6.2 6.3 6.4 6.4 6.6 6.7 6.8 6.7 6.7 6.7 6.8 6.7 6.8 6.9 7.0 7.0 7.0 7.0 7.0 7.0 6.9 6.6 6.5 6.5 6.5 6.8 6.7 6.9 6.8 6.5 6.4 6.2 6.3 6.2 6.1 6.0 3.7 4.2
6.4 6.5 6.5 6.3 6.3 6.1 5.9 6.0 6.1 6.1 6.1 6.3 6.4 6.6 6.8 6.8 6.8 6.7 6.6 6.8 6.7 6.7 6.9 6.9 7.0 7.1 7.0 7.0 6.9 6.9 6.6 6.3 6.3 6.4 6.6 6.6 6.7 6.9 6.8 6.5 6.2 6.1 6.1 5.9 5.8 5.7 4.2
6.4 6.4 6.5 6.4 6.3 6.2 6.1 6.0 6.0 6.0 6.2 6.2 6.3 6.6 6.7 6.8 6.7 6.6 6.7 6.7 6.7 6.7 6.8 6.9 6.9 6.9 7.0 6.9 6.9 6.8 6.6 6.4 6.3 6.3 6.4 6.5 6.5 6.6 6.8 6.4 6.2 6.3 6.1 5.9 5.7 5.2 5.0
6.6 6.4 6.4 6.3 6.2 6.0 6.0 5.8 5.8 5.9 5.9 6.0 6.2 6.6 6.6 6.8 6.8 6.8 6.7 6.7 6.7 6.6 6.7 6.9 7.0 6.9 6.8 6.8 6.7 6.5 6.4 6.4 6.4 6.3 6.2 6.2 6.3 6.3 6.7 6.5 6.3 6.0 5.9 5.7 5.4 5.0 5.0
6.6 6.5 6.5 6.4 6.2 6.0 5.9 5.9 5.9 5.8 5.9 6.1 6.3 6.5 6.6 6.7 6.8 6.7 6.8 6.6 6.6 6.5 6.7 6.8 6.9 6.8 6.8 6.6 6.6 6.4 6.4 6.3 6.3 6.3 6.2 6.2 6.2 6.3 6.3 6.2 6.1 6.1 6.4 6.0 5.5 5.0 5.1
6.5 6.4 6.4 6.3 6.2 6.1 5.9 6.0 6.1 6.0 6.1 6.2 6.3 6.6 6.7 6.7 6.6 6.6 6.6 6.7 6.6 6.6 6.7 6.7 6.7 6.7 6.6 6.5 6.4 6.4 6.4 6.4 6.5 6.5 6.4 6.2 6.2 6.3 6.2 6.5 6.6 6.5 6.5 6.4 5.7 5.8 5.0
6.4 6.4 6.4 6.3 6.2 6.1 6.0 6.0 6.1 6.1 6.2 6.3 6.4 6.6 6.6 6.6 6.6 6.5 6.5 6.6 6.6 6.6 6.7 6.7 6.7 6.6 6.5 6.4 6.3 6.4 6.5 6.6 6.7 6.7 6.5 6.2 6.4 6.4 6.6 6.7 6.4 6.5 7.0 6.8 6.8 6.5 6.4
6.4 6.3 6.2 6.2 6.2 6.0 6.0 6.0 6.0 6.1 6.1 6.1 6.3 6.4 6.5 6.5 6.5 6.5 6.7 6.8 6.8 6.7 6.6 6.6 6.6 6.4 6.4 6.3 6.5 6.5 6.5 6.6 6.6 6.6 6.4 6.4 6.5 6.1 6.4 6.5 6.1 6.7 7.0 6.9 6.5 6.6 6.7
6.5 6.4 6.3 6.2 6.2 6.0 5.9 5.9 5.9 6.2 6.1 6.1 6.2 6.2 6.3 6.4 6.3 6.3 6.4 6.5 6.6 6.6 6.4 6.4 6.4 6.4 6.4 6.4 6.5 6.6 6.8 6.9 6.9 6.9 6.9 6.8 6.4 5.6 5.5 5.7 4.8 7.0 6.4 6.3 6.1 6.4 6.7
6.6 6.5 6.4 6.3 6.2 6.0 5.9 5.9 5.8 6.0 6.1 6.1 6.1 6.1 6.2 6.3 6.4 6.4 6.4 6.4 6.4 6.4 6.4 6.4 6.4 6.3 6.3 6.2 6.3 6.6 6.7 6.7 6.8 6.9 6.6 6.7 6.4 5.8 5.5 5.0 5.5 6.2 6.7 6.4 6.0 5.8 6.2
6.6 6.5 6.5 6.4 6.3 6.1 6.0 5.9 5.9 5.9 6.1 6.1 6.2 6.2 6.1 6.1 6.3 6.3 6.4 6.3 6.3 6.3 6.2 6.3 6.3 6.3 6.2 6.1 6.0 5.9 6.0 6.3 6.5 6.8 6.8 6.5 6.3 6.0 5.5 5.1 4.8 6.5 6.6 6.4 6.1 5.4 5.5
6.5 6.5 6.5 6.4 6.3 6.2 6.0 5.9 5.9 5.9 5.9 6.0 6.1 6.1 6.1 6.1 6.1 6.2 6.3 6.4 6.3 6.3 6.4 6.4 6.3 6.2 6.2 6.1 5.7 5.6 5.7 5.9 5.9 6.2 6.3 6.3 6.3 6.1 6.1 5.2 5.3 6.6 6.4 6.1 5.5 5.2 5.2
6.6 6.6 6.4 6.3 6.3 6.2 6.0 5.9 5.8 5.9 5.8 5.8 5.9 6.0 6.1 6.0 6.1 6.0 6.1 6.2 6.3 6.3 6.3 6.3 6.2 6.2 6.0 5.9 5.7 5.7 5.6 5.7 5.6 5.8 5.9 5.9 6.0 6.1 5.6 5.7 5.9 6.5 6.1 5.7 5.5 5.6 5.8
6.5 6.7 6.6 6.5 6.5 6.3 6.2 6.0 5.9 5.9 5.9 6.0 5.9 5.9 5.9 5.9 6.1 6.0 6.1 6.1 6.2 6.2 6.1 5.9 6.0 5.8 5.8 5.8 5.8 5.5 5.5 5.4 5.4 5.1 5.5 5.5 6.3 5.8 5.7 6.0 6.5 6.1 6.2 5.7 5.7 5.6 5.8
Wind_Speed
9 11 13 14 15 15 13 12 11 10 9 11 10 10 11 11 9 9 8 9 11 11 13 15 14 13 4 4 1 4 15 10 5 6 8 4 7 3 4 2 3 4 2 4 1 5 3
9 11 12 14 15 16 14 14 10 9 8 9 9 11 11 10 9 9 10 11 11 11 12 13 14 13 2 6 2 9 10 5 4 5 4 7 3 2 4 3 4 1 1 1 1 3 1
10 11 13 13 14 15 15 12 10 9 7 7 7 7 8 9 9 10 11 11 10 11 11 14 13 4 4 2 4 11 7 2 2 1 4 2 2 5 3 3 5 3 5 6 6 5 2
10 12 14 15 15 14 13 11 8 6 6 5 6 6 6 9 10 11 11 10 9 10 12 13 10 3 2 3 7 5 7 4 5 3 3 2 3 5 5 1 6 6 6 5 6 3 4
10 12 14 15 17 17 14 12 8 5 3 3 2 4 7 7 9 9 4 4 6 8 10 8 2 4 3 9 6 5 5 4 6 5 7 4 7 4 7 4 5 8 1 2 7 5 5
10 13 15 16 18 18 17 13 9 7 4 1 0 0 1 3 2 1 2 1 5 5 5 3 2 5 7 4 5 5 5 4 5 3 6 9 6 5 5 6 1 2 2 2 3 5 7
9 12 15 16 17 18 17 14 12 9 7 6 5 2 2 2 3 5 7 1 5 6 10 4 2 4 3 6 3 6 3 3 5 9 5 6 8 3 3 2 0 0 1 2 3 1 5
9 12 14 16 17 18 17 16 14 12 10 8 6 5 3 4 5 13 1 6 2 2 4 2 3 2 1 1 7 11 5 6 6 4 2 7 4 2 5 5 3 3 2 4 5 3 0
8 11 13 15 17 17 16 17 15 14 11 8 7 6 6 6 7 6 5 3 2 2 5 5 3 2 3 5 5 9 6 3 5 6 5 5 1 4 4 5 6 4 2 2 5 6 1
7 10 13 14 16 18 16 16 16 14 11 8 7 8 7 1 8 1 3 2 2 2 5 8 6 4 5 2 5 3 5 3 7 3 2 4 4 5 6 4 2 4 2 2 4 2 1
7 8 11 13 16 19 18 18 17 14 11 8 8 7 12 2 6 3 1 2 2 4 5 5 6 2 5 7 1 12 4 6 4 4 4 2 3 6 7 3 1 6 4 2 1 2 3
8 8 10 13 16 18 18 19 19 16 11 8 7 3 1 5 3 1 2 3 4 7 1 3 2 4 5 8 6 6 8 7 2 6 7 2 3 3 2 2 2 6 3 5 4 2 3
7 8 10 12 15 17 19 21 21 18 11 6 6 8 5 2 2 2 2 4 5 6 3 2 3 4 5 6 6 7 7 9 5 4 6 6 4 5 3 5 6 9 6 3 5 5 4
6 8 9 11 14 17 19 22 23 21 11 4 6 5 6 3 2 2 4 6 6 3 1 1 3 5 5 4 5 7 3 6 5 5 3 4 5 5 6 1 2 3 4 4 2 1 5
6 7 9 11 14 17 19 22 24 23 13 4 4 3 3 4 4 3 5 5 6 5 1 2 3 5 4 3 4 5 4 2 3 4 3 3 3 5 1 2 1 2 4 2 5 2 3
4 6 9 11 13 16 18 22 24 24 15 5 3 3 2 9 2 5 5 3 1 4 1 2 3 1 2 5 3 4 2 1 2 4 1 1 2 1 4 1 5 6 4 4 4 2 4
4 5 8 11 13 16 18 21 25 26 18 2 4 4 3 7 3 5 4 4 3 2 2 3 3 3 3 2 3 2 1 2 3 3 5 2 2 5 2 5 2 4 3 5 3 3 3
5 4 6 10 12 15 18 20 23 25 21 7 3 3 2 2 4 1 2 2 1 3 6 5 5 3 3 3 3 2 2 3 6 2 3 2 4 3 4 1 1 2 3 4 4 4 2
6 5 4 7 11 13 16 18 21 23 13 3 3 1 2 3 3 2 1 4 4 3 5 3 3 4 4 3 4 3 4 2 5 3 2 0 2 3 8 5 4 3 2 3 5 3 6
5 5 6 5 8 12 15 17 20 24 9 3 3 2 4 4 1 6 5 2 4 4 4 6 3 5 5 5 6 2 2 2 6 4 6 5 2 5 5 7 4 5 4 4 4 3 4
5 5 5 6 8 11 14 17 22 25 8 3 3 1 2 0 4 4 4 2 3 3 3 5 4 4 4 3 3 2 2 5 4 5 4 3 2 4 5 8 7 11 11 8 8 8 6
6 5 4 6 7 10 13 16 22 25 8 4 4 4 3 2 2 4 4 1 4 2 3 2 6 2 4 4 4 2 3 2 5 2 2 3 3 1 4 3 5 8 11 11 9 6 11
9 6 5 5 6 8 12 16 20 24 7 3 0 2 4 4 2 4 2 4 4 5 5 3 8 4 2 5 5 3 5 2 1 2 2 0 3 2 5 4 8 8 5 4 3 6 6
11 8 6 5 5 7 9 13 17 21 9 3 1 3 4 2 3 3 3 2 4 2 7 3 5 5 3 4 4 5 5 5 1 3 4 5 4 2 3 4 2 8 2 7 7 8 10
13 10 8 6 5 5 7 11 14 17 13 3 2 3 3 2 2 3 5 5 3 4 3 3 2 1 5 5 4 6 5 6 3 5 2 4 5 2 3 3 6 9 8 1 4 7 4
16 13 10 8 5 4 5 8 11 14 15 3 2 2 4 6 4 4 4 3 3 2 4 2 3 3 6 3 4 3 2 4 4 5 5 5 5 3 1 3 5 7 3 1 2 6 1
18 16 13 10 7 4 3 6 8 11 13 3 2 2 4 4 2 4 3 5 5 3 3 2 3 3 3 2 2 3 3 2 2 2 3 1 1 6 6 5 8 9 6 1 3 3 3
20 18 15 13 10 7 4 4 7 9 11 3 1 5 3 3 3 4 4 5 3 2 4 3 4 3 3 3 3 3 2 5 2 4 4 4 3 4 2 3 8 3 1 2 7 1 7
23 20 17 14 12 10 6 2 3 7 9 3 2 3 3 4 3 1 2 0 3 7 5 1 3 4 4 4 1 3 3 2 4 3 1 4 7 3 8 7 5 4 6 8 4 6 5
Wind_Direction
333 335 329 331 327 323 319 312 307 298 287 272 260 251 244 240 238 238 248 259 271 276 280 287 313 322 306 50 265 312 346 29 37 11 40 46 49 72 72 56 72 68 131 172 195 166 209
345 342 338 336 334 324 329 327 315 300 284 273 262 244 236 234 231 233 237 248 256 269 284 297 294 303 211 77 278 339 345 50 36 55 29 45 77 93 90 72 78 66 142 304 359 195 172
350 350 341 342 334 337 339 334 318 314 309 291 273 262 250 241 233 229 234 242 253 264 278 276 281 280 71 183 6 342 20 42 25 19 55 45 145 76 110 85 323 50 32 7 24 343 336
358 351 345 343 344 346 348 341 335 331 319 295 271 253 250 239 229 225 224 230 245 258 266 272 290 258 87 295 326 17 354 339 354 70 68 331 71 101 51 348 27 39 48 24 328 27 13
359 352 348 346 349 353 356 359 353 341 303 261 235 231 225 227 225 222 231 266 275 271 258 275 318 71 26 331 26 318 35 342 327 1 35 55 62 78 19 60 30 8 116 342 327 59 10
356 356 351 350 352 353 356 359 1 3 1 356 349 54 229 219 229 164 125 157 242 269 245 255 78 46 356 317 303 346 338 22 38 7 25 37 50 63 27 48 200 299 354 312 253 321 359
354 358 356 352 355 355 356 2 6 7 12 20 18 7 316 264 236 178 124 212 15 5 39 94 308 143 297 286 354 348 352 18 36 50 49 6 64 51 349 5 293 148 234 302 266 287 350
358 2 356 355 355 354 356 4 6 6 14 11 11 354 307 261 224 179 273 81 140 178 47 50 300 358 281 100 28 342 35 69 55 65 30 34 70 329 108 49 61 39 33 313 295 282 163
359 357 358 353 355 352 357 2 8 8 6 4 0 350 335 303 186 125 82 87 300 130 90 335 331 9 320 52 33 339 34 45 62 45 30 111 37 54 87 33 32 330 193 235 241 328 48
1 354 358 350 352 350 356 356 5 5 2 355 355 351 348 334 44 283 50 314 314 117 76 317 346 2 8 55 53 354 11 68 33 80 79 62 22 71 52 49 61 320 150 276 265 62 215
349 356 350 348 350 352 350 353 358 358 356 351 1 10 51 128 149 66 177 312 104 58 68 282 319 294 27 82 258 342 337 32 58 27 74 294 34 45 44 311 326 247 340 275 264 131 88
339 353 347 348 349 350 349 352 355 352 350 350 3 13 30 31 48 29 346 68 45 44 47 348 1 11 47 16 28 335 21 43 69 62 33 14 320 47 302 307 351 294 34 43 47 70 44
336 344 347 348 346 349 354 352 352 351 347 353 34 71 62 84 158 317 75 48 45 96 279 17 47 57 70 19 42 32 22 34 45 39 6 340 354 321 29 10 352 23 41 359 5 10 217
339 337 344 344 343 347 355 355 352 355 355 9 77 78 30 67 349 89 53 54 77 249 318 4 65 62 82 9 31 16 48 25 13 50 77 42 340 2 340 27 288 10 92 131 192 291 277
327 336 336 341 343 345 353 357 354 357 6 39 117 14 39 333 359 63 74 58 182 207 241 95 59 72 15 18 107 80 55 43 348 1 86 46 294 323 337 323 74 330 46 155 105 12 34
309 324 338 340 344 342 349 356 357 358 1 11 82 59 344 328 8 64 73 157 112 203 114 70 104 23 110 352 66 74 38 306 329 25 161 343 326 278 293 5 25 95 136 33 11 47 306
287 305 332 337 344 341 346 355 0 358 357 359 61 61 265 349 60 52 123 204 134 22 116 64 117 91 81 80 58 66 66 323 12 360 58 39 68 294 7 34 13 3 27 55 106 118 186
273 290 323 331 340 341 344 353 1 360 355 46 95 65 304 61 51 26 93 99 143 355 41 64 88 87 86 56 62 88 108 43 351 350 42 357 134 298 255 211 282 97 124 107 111 298 226
274 275 300 328 341 338 343 350 0 360 8 113 95 201 320 100 116 356 238 62 74 48 32 68 71 57 50 71 89 51 65 357 13 62 88 170 360 3 345 20 7 90 208 116 96 83 217
260 274 294 321 334 336 341 351 359 0 14 86 89 51 340 46 63 118 112 63 99 36 64 69 93 72 71 44 19 103 52 351 349 35 65 91 119 156 198 240 234 262 204 194 147 230 248
234 262 280 305 328 338 339 355 3 3 19 83 39 215 187 247 354 92 85 100 104 89 74 41 41 62 121 82 34 49 10 340 1 360 49 84 209 196 247 260 276 276 275 254 204 231 224
218 242 265 295 324 338 344 356 2 4 7 74 121 127 32 67 9 81 12 60 127 116 94 65 122 116 101 134 156 223 187 194 244 352 77 20 261 319 277 302 295 274 259 243 265 252 239
210 220 248 276 315 337 347 356 3 6 16 92 275 46 100 322 44 79 229 162 165 121 26 144 148 108 83 187 189 206 200 222 20 172 169 352 126 65 277 3 326 319 267 184 213 230 215
212 219 241 270 298 327 348 357 4 15 31 116 170 104 83 265 96 160 167 94 127 132 140 135 122 111 210 88 70 34 46 26 4 265 185 136 106 123 261 343 140 249 245 231 214 258 271
213 221 230 243 273 313 348 358 4 14 25 88 125 106 114 106 193 20 110 111 92 51 72 127 52 52 113 53 50 17 348 18 346 29 109 138 135 194 237 211 296 293 296 246 188 263 268
212 220 229 236 244 283 337 358 6 12 21 86 68 102 98 118 247 160 132 147 152 124 20 96 62 38 64 83 72 128 235 224 310 329 63 64 73 127 122 242 262 236 251 18 141 292 303
215 216 223 232 236 243 301 347 8 16 21 82 62 71 90 104 249 130 159 172 130 91 130 320 166 32 30 76 106 149 241 205 246 197 264 335 233 226 243 252 273 254 269 265 83 268 304
209 212 214 222 225 227 244 330 0 16 22 68 121 26 105 111 265 188 159 127 108 108 138 204 57 356 74 88 136 203 148 231 167 242 201 205 192 207 152 222 279 216 116 154 239 317 267
207 210 214 215 219 218 216 241 357 10 20 44 72 16 27 97 199 319 291 156 158 179 133 6 174 163 178 93 160 120 213 182 182 254 157 263 199 196 186 217 218 215 288 286 310 277 302